sat.trackr.live / text

‹ back to catalog

STARLINK-32763

NORAD 62750 · 2025-014R

PAYLOAD ACTIVE UNKNOWN

§ Identity

Operator
Country
US
Launch date
2025-01-21
Launch site
AFETR
Launch vehicle
Mass (kg)
RCS (m²)

Purposes: comms

External: N2YO · Heavens-Above · Gunter

§ Orbital elements

Epoch: 2026-05-24T22:51:53.694720Z

Period
94.27 min
Inclination
43.0010°
Eccentricity
0.0001040
Mean motion
15.27600363 rev/d
Perigee alt
482.3 km
Apogee alt
483.7 km
Semi-major
6,861.1 km
B*
7.2290e-4
RAAN
83.4465°
Arg perigee
240.4802°
Mean anomaly
119.5946°
Rev number
7,492

§ Raw data

STARLINK-327631 62750U 25014R   26144.95270480  .00019696  00000+0  72290-3 0  99972 62750  43.0010  83.4465 0001040 240.4802 119.5946 15.27600363 74925

JSON: /api/v1/satellites/62750 · /tle

For live sub-satellite position, see the globe view (requires WebGL).

§ Visibility from observer

Set your observer location to see the next 7 days of passes ≥ 10°. The values pass through the URL so the page stays shareable.

No JS? Fill the form by hand. The geolocation button needs JavaScript.